Location: Blackrock Ranger Station
(36.0936°N, 118.2611°W)
Time: 05:03:08
(UTC-08:00)

Hubble Space Telescope - Visible Passes

Search period start: 13 December 2025 00:00
Search period end: 23 December 2025 00:00
Orbit: 480 x 483 km, 28.5° (Epoch: 12 December)

Date Brightness Start Highest point End Pass type
(mag) Time Alt. Az. Time Alt. Az. Time Alt. Az.
13 Dec 2.5 17:05:26 10° SW 17:08:31 24° S 17:11:36 10° ESE visible
13 Dec 2.4 18:44:54 10° WSW 18:47:42 23° SSW 18:47:42 23° SSW visible
14 Dec 2.5 18:15:40 10° WSW 18:18:42 23° S 18:20:16 18° SSE visible
15 Dec 2.6 17:46:25 10° WSW 17:49:26 23° S 17:52:28 10° SE visible
16 Dec 2.7 17:17:08 10° WSW 17:20:09 23° S 17:23:10 10° SE visible
16 Dec 3.3 18:58:06 10° SW 18:59:27 12° SSW 18:59:47 11° SSW visible
17 Dec 3.4 18:28:50 10° SW 18:30:09 11° SSW 18:31:27 10° S visible
18 Dec 3.5 17:59:35 10° SW 18:00:49 11° SSW 18:02:03 10° S visible
19 Dec 3.6 17:30:18 10° SW 17:31:28 11° SSW 17:32:38 10° S visible
